ALSAT 1 1 27559U 02054A 09007.06127939 .00000032 00000-0 15107-4 0 9423 2 27559 097.9679 247.2058 0009674 219.1787 140.8722 14.62996167326136 NIGERIASAT 1 1 27941U 03042C 09007.07943720 -.00000026 00000-0 38360-5 0 355 2 27941 097.9685 247.5288 0010330 287.7008 072.3078 14.62985322281981 UK-DMC 1 27942U 03042D 09007.04375285 .00000066 00000-0 21858-4 0 219 2 27942 097.9675 247.2710 0010129 297.1695 062.8481 14.62995718281972 BILSAT 1 1 27943U 03042E 09007.56108399 .00000000 00000-0 89671-5 0 8738 2 27943 097.9665 247.5865 0010527 284.6299 075.3736 14.62893641282042 BEIJING 1 (TSINGHUA) 1 28890U 05043A 09007.10353464 .00000010 00000-0 11606-4 0 7493 2 28890 098.0730 262.0805 0016344 126.5083 233.7632 14.60048219170405